Location: Branche des Alpilles
(43.6087°N, 4.6976°E)
Time: 17:20:09
(UTC+00:00)

PSLV R/B - Pass Details

Date: 30 November 2020
Orbit: 568 x 597 km, 98.2° (Epoch: 22 January)

Event Time Altitude Azimuth Distance (km) Brightness Sun altitude
Exits shadow 17:36:20 30° 64° (ENE) 1,045 4.6 -15.9°
Maximum altitude 17:37:26 35° 98° (E) 926 4.5 -16.1°
Drops below altitude 10° 17:41:09 10° 165° (SSE) 1,864 6.5 -16.8°
Sets 17:43:25 0° 174° (S) 2,758 7.5 -17.2°
